sat.trackr.live / text

‹ back to catalog

STARLINK-36768

NORAD 67803 · 2026-032G

PAYLOAD ACTIVE UNKNOWN

§ Identity

Operator
Country
US
Launch date
2026-02-15
Launch site
AFWTR
Launch vehicle
Mass (kg)
RCS (m²)

Purposes: comms

External: N2YO · Heavens-Above · Gunter

§ Orbital elements

Epoch: 2026-09-19T06:34:00.035328Z

Period
93.91 min
Inclination
97.2852°
Eccentricity
0.0001620
Mean motion
15.33448658 rev/d
Perigee alt
464.4 km
Apogee alt
466.6 km
Semi-major
6,843.7 km
B*
5.5204e-4
RAAN
88.6428°
Arg perigee
83.6156°
Mean anomaly
276.5271°
Rev number
3,462

§ Raw data

STARLINK-367681 67803U 26032G   26262.27361152  .00017791  00000+0  55204-3 0  99952 67803  97.2852  88.6428 0001620  83.6156 276.5271 15.33448658 34625

JSON: /api/v1/satellites/67803 · /tle

For live sub-satellite position, see the globe view (requires WebGL).

§ Visibility from observer

Set your observer location to see the next 7 days of passes ≥ 10°. The values pass through the URL so the page stays shareable.

No JS? Fill the form by hand. The geolocation button needs JavaScript.